San Jose, Costa Rica

12:02 PM CST on September 22, 2017 (GMT -0600)
Juan Santamaria International

Weather History for MROC - August, 2012

Change the Weather History Date:

Sunday, August 19, 2012

  Actual Average Record
Temperature  
Mean Temperature 72 °F -  
Max Temperature 82 °F 79 °F 87 °F (1997)
Min Temperature 62 °F 63 °F 60 °F (1999)
Cooling Degree Days 7    
Growing Degree Days 22 (Base 50)    
Moisture  
Dew Point 63 °F    
Average Humidity 79    
Maximum Humidity 94    
Minimum Humidity 46    
Precipitation  
Precipitation 1.06 in 0.43 in - ()
Sea Level Pressure  
Sea Level Pressure 30.03 in    
Wind  
Wind Speed 5 mph ()    
Max Wind Speed 16 mph    
Max Gust Speed 28 mph    
Visibility 7.1 miles    
Events Rain , Thunderstorm    
Averages and records for this station are not official NWS values.
T = Trace of Precipitation, MM = Missing Value Source: Averaged Metar Reports

Daily Weather History Graph

Daily Weather History Graph

Search for Another Location

Airport or City:

Trip Planner

Search our weather history database for the weather conditions in past years. The results will help you decide how hot, cold, wet, or windy it might be!

Date:

Astronomy

Aug. 19, 2012 Rise Set
Actual Time 5:27 AM CST 5:52 PM CST
Civil Twilight 5:06 AM CST 6:14 PM CST
Nautical Twilight 4:41 AM CST 6:39 PM CST
Astronomical Twilight 4:15 AM CST 7:04 PM CST
Moon 7:04 AM CST (8/19) 7:24 PM CST (8/19)
Length of Visible Light 13h 07m
Length of Day
12h 24m
Waxing Crescent, 5% of the Moon is Illuminated
Aug 19
Waxing Crescent
Aug 24
First Quarter
Aug 31
Full
Sep 8
Last Quarter
Sep 15
New

Hourly Weather History & Observations

Time (CST) Temp. Heat Index Dew Point Humidity Pressure Visibility Wind Dir Wind Speed Gust Speed Precip Events Conditions
12:00 AM 68 °F - 66 °F 90% 29.90 in 5 mi WSW 3.5 mph - -   Mist
12:00 AM 68.0 °F - 66.2 °F 94% 30.06 in 6.2 mi WSW 3.5 mph - N/A   Scattered Clouds
1:00 AM 66.2 °F - 64.4 °F 94% 30.06 in 6.2 mi Calm Calm - N/A   Scattered Clouds
2:00 AM 64.4 °F - 62.6 °F 94% 30.04 in - ESE 2.3 mph - N/A   Clear
3:00 AM 64 °F - 60 °F 84%  in 12 mi East 5.8 mph - -  
3:00 AM 64.4 °F - 60.8 °F 88% 30.04 in - East 5.8 mph - N/A   Clear
4:00 AM 64.4 °F - 59.0 °F 83% 30.04 in - NE 6.9 mph - N/A   Clear
5:00 AM 62.6 °F - 59.0 °F 88% 30.05 in - East 8.1 mph - N/A   Clear
6:00 AM 65 °F - 59 °F 74% 29.95 in 12 mi ENE 4.6 mph - -   Scattered Clouds
6:00 AM 64.4 °F - 59.0 °F 83% 30.06 in - ENE 4.6 mph - N/A   Clear
7:00 AM 71.6 °F - 60.8 °F 69% 30.09 in - East 5.8 mph - N/A   Clear
8:00 AM 77.0 °F - 60.8 °F 57% 30.10 in - ESE 3.5 mph - N/A   Clear
9:00 AM 80 °F - 63 °F 46% 29.94 in 12 mi SSW 4.6 mph - -   Clear
9:00 AM 80.6 °F 81.8 °F 62.6 °F 54% 30.10 in - SSW 4.6 mph - N/A   Clear
10:00 AM 77.0 °F - 64.4 °F 65% 30.11 in 6.2 mi WSW 9.2 mph - N/A   Scattered Clouds
11:00 AM 78.8 °F - 66.2 °F 65% 30.09 in 6.2 mi WSW 9.2 mph - N/A   Scattered Clouds
12:00 PM 79 °F - 67 °F 58% 29.91 in 12 mi SW 8.1 mph - -   Overcast
12:00 PM 78.8 °F - 66.2 °F 65% 30.07 in 6.2 mi SW 8.1 mph - N/A   Scattered Clouds
1:00 PM 82.4 °F 85.4 °F 68.0 °F 62% 30.05 in 6.2 mi SW 10.4 mph - N/A   Mostly Cloudy
1:20 PM 80.6 °F 82.7 °F 66.2 °F 61% 30.03 in 6.2 mi SW 11.5 mph - N/A Rain Rain Showers
1:40 PM 75.2 °F - 66.2 °F 73% 30.03 in 3.7 mi SW 13.8 mph - N/A Rain , Thunderstorm Thunderstorms and Rain
2:00 PM 73.4 °F - 68.0 °F 83% 30.05 in 1.9 mi SSW 9.2 mph - N/A Rain , Thunderstorm Heavy Thunderstorms and Rain
2:05 PM 71.6 °F - 68.0 °F 88% 30.06 in 0.5 mi SSW 9.2 mph - N/A Rain , Thunderstorm Heavy Thunderstorms and Rain
2:15 PM 64.4 °F - 62.6 °F 94% 30.04 in 6.2 mi SW 16.1 mph 27.6 mph N/A Rain , Thunderstorm Light Thunderstorms and Rain
3:00 PM 66 °F - 64 °F 90% 29.94 in 9 mi SSE 4.6 mph - -   Overcast
3:00 PM 66.2 °F - 64.4 °F 94% 30.05 in 6.2 mi SSE 4.6 mph - N/A   Overcast
4:00 PM 68.0 °F - 64.4 °F 88% 30.06 in 6.2 mi NE 4.6 mph - N/A   Overcast
5:00 PM 68.0 °F - 66.2 °F 94% 30.05 in 6.2 mi ESE 4.6 mph - N/A   Overcast
6:00 PM 69 °F - 64 °F 78% 29.90 in 12 mi ENE 5.8 mph - -   Overcast
6:00 PM 68.0 °F - 64.4 °F 88% 30.03 in - ENE 5.8 mph - N/A   Clear
7:00 PM 64.4 °F - 59.0 °F 83% 30.06 in - ESE 3.5 mph - N/A   Clear
8:00 PM 68.0 °F - 62.6 °F 83% 30.02 in - ENE 2.3 mph - N/A   Clear
9:00 PM 68.0 °F - 62.6 °F 83% 30.06 in - Calm Calm - N/A   Clear
10:00 PM - - 60.8 °F N/A% 30.05 in - ENE 4.6 mph - N/A   Clear
11:00 PM 66.2 °F - 60.8 °F 83% 30.07 in - NNE 5.8 mph - N/A   Clear